Flag for Switzerland Weather past 2 weeks in Zürich, Zurich, Switzerland

Now
44 °F

Quite cool.


Feels Like: 40 °F
Forecast: 31 / 62 °F
Wind: 8 mph from Northeast

Location: Zurich Town / Ville.

Current Time: Apr 19, 2015 at 11:29:28 AM

Latest Report: Apr 19, 2015 at 10:00 AM


Visibility: N/A

Pressure: 30.06 "Hg

Humidity: 55%

Dew point: 29 °F

Location of ZürichLocation

Historic Weather in Zürich — Graph

°F

Zürich temperature yesterday

Maximum temperature yesterday: 54 °F (at 4:00 PM)
Minimum temperature yesterday: 41 °F (at 11:00 PM)
Average temperature yesterday: 46 °F

Past Weeks' High & Low Weather Summary

 TemperatureHumidityPressure
High72 °F (Apr 15, 5:00 PM)97% (Apr 4, 10:00 AM)30.61 "Hg (Apr 4, 10:00 AM)
Low30 °F (Apr 6, 7:00 AM)19% (Apr 8, 6:00 PM)29.85 "Hg (Apr 4, 5:00 PM)
Average50 °F58%30.25 "Hg
* Reported Apr 4 10:00 AM — Apr 19 10:00 AM, Zürich, Weather by CustomWeather, © 2015

Note: Actual official high and low records may vary slightly from our data, if they occured in-between our weather recording intervals... More about our weather records

Advertising

Zürich weather history for previous 24 hours

 ConditionsComfort  
Time TempWeatherWind HumidityBarometerVisibility
10:00 AM
Sun, Apr 19
44 °FQuite cool.8 mph55%30.06 "HgN/A
9:00 AM41 °FQuite cool.12 mph64%30.07 "HgN/A
8:00 AM38 °FChilly.10 mph68%30.08 "HgN/A
7:00 AM36 °FChilly.2 mph70%30.09 "HgN/A
6:00 AM37 °FChilly.5 mph68%30.10 "HgN/A
5:00 AM37 °FChilly.8 mph67%30.11 "HgN/A
4:00 AM38 °FChilly.7 mph66%30.12 "HgN/A
3:00 AM38 °FChilly.5 mph63%30.13 "HgN/A
2:00 AM40 °FChilly.8 mph62%30.14 "HgN/A
1:00 AM41 °FQuite cool.5 mph59%30.14 "HgN/A
12:00 AM41 °FQuite cool.5 mph58%30.15 "HgN/A
11:00 PM
Sat, Apr 18
41 °FQuite cool.5 mph61%30.17 "HgN/A
10:00 PM43 °FQuite cool.3 mph56%30.18 "HgN/A
9:00 PM45 °FQuite cool.5 mph50%30.17 "HgN/A
8:00 PM47 °FCool.6 mph46%30.16 "HgN/A
7:00 PM50 °FCool.8 mph43%30.15 "HgN/A
6:00 PM51 °FCool.7 mph42%30.14 "HgN/A
5:00 PM52 °FCool.9 mph41%30.14 "HgN/A
4:00 PM54 °FCool.9 mph42%30.14 "HgN/A
3:00 PM53 °FCool.9 mph40%30.16 "HgN/A
2:00 PM50 °FCool.8 mph48%30.17 "HgN/A
1:00 PM50 °FCool.10 mph53%30.17 "HgN/A
12:00 PM47 °FCool.9 mph58%30.19 "HgN/A
11:00 AM47 °FCool.7 mph66%30.18 "HgN/A
Weather by CustomWeather, © 2015

See weather overviewHow to use our weather pages